All
Fisher County Airport (Rotan/Roby, TX) 56F Weather
There is no TAF data available at 56F or any nearby airports.
There is no METAR data available at 56F. Showing METAR data for KSWW (25 mi S).
Recent SWW METAR history (no data for 56F)
| Date | Time (CDT) | Flight Rules | Wind Dir. | Speed | Type | Height AGL (ft) | Visibility | Temp (°C) | Temp (°F) | Dew Point (°C) | Dew Point (°F) | Rel. Humid. | Pressure | Density Altitude | Remarks |
|---|---|---|---|---|---|---|---|---|---|---|---|---|---|---|---|
| 07-May | 07:15AM | VFR | 50° | 4 kt | 10 miles | 9° | 48° | 6° | 42° | 86% | 30.17 in Hg | 1,884 ft | |||
| 07-May | 06:55AM | VFR | 40° | 5 kt | 10 miles | 9° | 48° | 6° | 42° | 86% | 30.17 in Hg | 1,884 ft | |||
| 07-May | 06:15AM | VFR | 50° | 6 kt | 10 miles | 9° | 48° | 7° | 44° | 85% | 30.17 in Hg | 1,884 ft | |||
| 07-May | 05:55AM | VFR | 50° | 6 kt | 10 miles | 9° | 48° | 7° | 44° | 84% | 30.17 in Hg | 1,884 ft | |||
| 07-May | 05:15AM | VFR | 50° | 6 kt | 10 miles | 10° | 50° | 7° | 44° | 85% | 30.16 in Hg | 2,014 ft | |||
| 07-May | 04:55AM | VFR | 40° | 7 kt | 10 miles | 10° | 50° | 7° | 44° | 84% | 30.16 in Hg | 2,014 ft | |||
| 07-May | 04:35AM | VFR | 50° | 6 kt | 10 miles | 10° | 50° | 7° | 44° | 83% | 30.15 in Hg | 2,024 ft | |||
| 07-May | 04:15AM | VFR | 50° | 6 kt | 10 miles | 10° | 50° | 8° | 46° | 83% | 30.15 in Hg | 2,024 ft | |||
| 07-May | 03:55AM | VFR | 50° | 8 kt | 10 miles | 11° | 51° | 8° | 46° | 82% | 30.14 in Hg | 2,154 ft | |||
| 07-May | 03:15AM | VFR | 50° | 8 kt | 10 miles | 11° | 51° | 8° | 46° | 82% | 30.13 in Hg | 2,164 ft | |||
| 07-May | 02:55AM | VFR | 70° | 8 kt | 10 miles | 11° | 51° | 8° | 46° | 81% | 30.13 in Hg | 2,164 ft | |||
| 07-May | 02:15AM | VFR | 60° | 8 kt | 10 miles | 11° | 51° | 8° | 46° | 78% | 30.12 in Hg | 2,174 ft | |||
| 07-May | 01:55AM | VFR | 60° | 6 kt | 10 miles | 12° | 53° | 8° | 46° | 76% | 30.12 in Hg | 2,294 ft | |||
| 07-May | 01:35AM | VFR | 60° | 6 kt | 10 miles | 12° | 53° | 7° | 44° | 74% | 30.11 in Hg | 2,304 ft | |||
| 07-May | 01:15AM | VFR | 60° | 6 kt | 10 miles | 12° | 53° | 7° | 44° | 72% | 30.10 in Hg | 2,314 ft | |||
| 07-May | 12:55AM | VFR | 70° | 5 kt | 10 miles | 12° | 53° | 7° | 44° | 70% | 30.09 in Hg | 2,324 ft | |||
| 07-May | 12:35AM | VFR | 70° | 8 kt | 10 miles | 13° | 55° | 7° | 44° | 69% | 30.08 in Hg | 2,454 ft | |||
| 07-May | 12:15AM | VFR | 70° | 8 kt | 10 miles | 13° | 55° | 7° | 44° | 67% | 30.08 in Hg | 2,454 ft | |||
| 06-May | 11:55PM | VFR | 70° | 7 kt | 10 miles | 14° | 57° | 7° | 44° | 66% | 30.06 in Hg | 2,594 ft | |||
| 06-May | 11:35PM | VFR | 70° | 10 kt | 10 miles | 14° | 57° | 7° | 44° | 63% | 30.06 in Hg | 2,594 ft | |||
| 06-May | 11:15PM | VFR | 80° | 8 kt | 10 miles | 14° | 57° | 7° | 44° | 62% | 30.05 in Hg | 2,604 ft | |||
| 06-May | 10:55PM | VFR | 80° | 8 kt | 10 miles | 15° | 59° | 7° | 44° | 61% | 30.05 in Hg | 2,724 ft | |||
| 06-May | 10:15PM | VFR | 80° | 10 kt | 10 miles | 16° | 60° | 7° | 44° | 56% | 30.04 in Hg | 2,854 ft | |||
| 06-May | 09:55PM | VFR | 70° | 8 kt | 10 miles | 16° | 60° | 7° | 44° | 55% | 30.03 in Hg | 2,864 ft |
Login
| Your browser is unsupported. upgrade your browser |
